Berea, KY

5:31 AM EDT on August 28, 2016 (GMT -0400)
Richmond

Weather History for KI39 - April, 2014

Change the Weather History Date:

Monday, April 7, 2014

  Actual Average (KLOZ) Record (KLOZ)
Temperature  
Mean Temperature 57 °F 54 °F  
Max Temperature 66 °F 66 °F 84 °F (2001)
Min Temperature 48 °F 42 °F 21 °F (1982)
Degree Days  
Heating Degree Days 8 11  
Month to date heating degree days 86  
Since 1 July heating degree days 3911  
Cooling Degree Days 0 0  
Month to date cooling degree days 0  
Year to date cooling degree days 3  
Growing Degree Days 7 (Base 50)    
Moisture  
Dew Point 48 °F    
Average Humidity 74    
Maximum Humidity 94    
Minimum Humidity 54    
Precipitation  
Precipitation 0.00 in 0.13 in 2.02 in (1972)
Month to date precipitation 0.89  
Sea Level Pressure  
Sea Level Pressure 29.63 in    
Wind  
Wind Speed 9 mph (South)    
Max Wind Speed 26 mph    
Max Gust Speed 39 mph    
Visibility 10 miles    
Events      
T = Trace of Precipitation, MM = Missing Value Source: NWS Daily Summary

Daily Weather History Graph

Daily Weather History Graph

Search for Another Location

Airport or City:

Trip Planner

Search our weather history database for the weather conditions in past years. The results will help you decide how hot, cold, wet, or windy it might be!

Date:

Astronomy

Apr. 07, 2014 Rise Set
Actual Time 7:13 AM EDT 8:05 PM EDT
Civil Twilight 6:47 AM EDT 8:32 PM EDT
Nautical Twilight 6:15 AM EDT 9:03 PM EDT
Astronomical Twilight 5:43 AM EDT 9:36 PM EDT
Moon 1:11 PM EDT (4/7) 2:39 AM EDT (4/7)
Length of Visible Light 13h 45m
Length of Day
12h 51m
First Quarter, 53% of the Moon is Illuminated
Apr 7
First Quarter
Apr 15
Full
Apr 22
Last Quarter
Apr 29
New
May 6
First Quarter

Hourly Weather History & Observations

Time (EDT) Temp. Dew Point Humidity Pressure Visibility Wind Dir Wind Speed Gust Speed Precip Events Conditions
12:15 AM 53.6 °F 37.4 °F 54% 29.91 in 10.0 mi Calm Calm - N/A   Overcast
12:35 AM 53.6 °F 39.2 °F 58% 29.91 in 10.0 mi Calm Calm - N/A   Overcast
1:15 AM 53.6 °F 39.2 °F 58% 29.91 in 10.0 mi SSE 3.5 mph - N/A   Overcast
1:35 AM 55.4 °F 39.2 °F 54% 29.89 in 10.0 mi SSE 8.1 mph - N/A   Overcast
1:55 AM 55.4 °F 42.8 °F 63% 29.88 in 10.0 mi South 8.1 mph - N/A   Overcast
2:15 AM 55.4 °F 44.6 °F 67% 29.88 in 10.0 mi South 9.2 mph - N/A   Overcast
2:35 AM 55.4 °F 46.4 °F 72% 29.88 in 10.0 mi South 6.9 mph - N/A   Overcast
2:55 AM 53.6 °F 48.2 °F 82% 29.87 in 10.0 mi South 5.8 mph - N/A   Overcast
3:15 AM 53.6 °F 48.2 °F 82% 29.84 in 10.0 mi SE 5.8 mph - N/A   Overcast
3:35 AM 51.8 °F 48.2 °F 88% 29.80 in 10.0 mi ESE 3.5 mph - N/A   Overcast
3:55 AM 51.8 °F 48.2 °F 88% 29.81 in 10.0 mi Calm Calm - N/A   Overcast
4:15 AM 51.8 °F 48.2 °F 88% 29.78 in 10.0 mi East 3.5 mph - N/A   Overcast
4:35 AM 51.8 °F 48.2 °F 88% 29.79 in 10.0 mi Calm Calm - N/A   Overcast
4:55 AM 51.8 °F 48.2 °F 88% 29.76 in 10.0 mi ESE 6.9 mph - N/A   Overcast
5:15 AM 51.8 °F 48.2 °F 88% 29.77 in 10.0 mi ESE 5.8 mph - N/A   Overcast
5:55 AM 51.8 °F 48.2 °F 88% 29.77 in 10.0 mi Calm Calm - N/A   Overcast
6:15 AM 51.8 °F 48.2 °F 88% 29.78 in 10.0 mi ESE 4.6 mph - N/A   Overcast
6:35 AM 51.8 °F 48.2 °F 88% 29.77 in 7.0 mi SE 6.9 mph - N/A   Overcast
6:55 AM 51.8 °F 48.2 °F 88% 29.76 in 5.0 mi ESE 4.6 mph - N/A   Overcast
7:15 AM 50.0 °F 48.2 °F 94% 29.73 in 4.0 mi ESE 8.1 mph - N/A   Overcast
7:35 AM 50.0 °F 48.2 °F 94% 29.75 in 5.0 mi ESE 5.8 mph - N/A   Overcast
7:55 AM 50.0 °F 48.2 °F 94% 29.72 in 10.0 mi East 5.8 mph - N/A   Overcast
8:15 AM 50.0 °F 48.2 °F 94% 29.71 in 10.0 mi East 5.8 mph - N/A   Overcast
8:35 AM 51.8 °F 48.2 °F 88% 29.71 in 10.0 mi ESE 6.9 mph - N/A   Overcast
8:55 AM 51.8 °F 48.2 °F 88% 29.70 in 10.0 mi ESE 9.2 mph - N/A   Overcast
9:15 AM 51.8 °F 48.2 °F 88% 29.70 in 10.0 mi SE 8.1 mph - N/A   Overcast
9:35 AM 53.6 °F 48.2 °F 82% 29.68 in 10.0 mi SE 8.1 mph 17.3 mph N/A   Overcast
9:55 AM 53.6 °F 48.2 °F 82% 29.68 in 10.0 mi SSE 10.4 mph - N/A   Overcast
10:15 AM 55.4 °F 48.2 °F 77% 29.65 in 10.0 mi SSE 15.0 mph 21.9 mph N/A   Overcast
10:35 AM 55.4 °F 48.2 °F 77% 29.64 in 10.0 mi SSE 12.7 mph 20.7 mph N/A   Overcast
10:55 AM 55.4 °F 50.0 °F 82% 29.61 in 10.0 mi SSE 10.4 mph 18.4 mph N/A   Overcast
11:15 AM 55.4 °F 50.0 °F 82% 29.59 in 10.0 mi SSE 12.7 mph 17.3 mph N/A   Overcast
11:35 AM 55.4 °F 50.0 °F 82% 29.56 in 10.0 mi SE 12.7 mph 17.3 mph N/A   Mostly Cloudy
12:15 PM 59.0 °F 50.0 °F 72% 29.58 in 10.0 mi SSE 9.2 mph - N/A   Overcast
12:35 PM 59.0 °F 50.0 °F 72% 29.58 in 10.0 mi South 8.1 mph - N/A   Overcast
12:55 PM 59.0 °F 50.0 °F 72% 29.55 in 10.0 mi SSE 12.7 mph 18.4 mph N/A   Overcast
1:15 PM 60.8 °F 50.0 °F 68% 29.53 in 10.0 mi South 11.5 mph 19.6 mph N/A   Overcast
1:35 PM 62.6 °F 51.8 °F 68% 29.53 in 10.0 mi South 12.7 mph 21.9 mph N/A   Overcast
1:55 PM 64.4 °F 51.8 °F 64% 29.51 in 10.0 mi South 17.3 mph 28.8 mph N/A   Overcast
2:15 PM 66.2 °F 53.6 °F 64% 29.51 in 10.0 mi South 23.0 mph 29.9 mph N/A   Overcast
2:35 PM 64.4 °F 53.6 °F 68% 29.51 in 10.0 mi South 20.7 mph 29.9 mph N/A   Overcast
2:55 PM 64.4 °F 53.6 °F 68% 29.50 in 10.0 mi South 24.2 mph 29.9 mph N/A   Overcast
3:15 PM 64.4 °F 53.6 °F 68% 29.50 in 10.0 mi South 16.1 mph 26.5 mph N/A   Overcast
3:35 PM 64.4 °F 53.6 °F 68% 29.48 in 10.0 mi South 20.7 mph 28.8 mph N/A   Overcast
3:55 PM 66.2 °F 53.6 °F 64% 29.47 in 10.0 mi SSW 16.1 mph 26.5 mph N/A   Overcast
4:15 PM 66.2 °F 53.6 °F 64% 29.46 in 10.0 mi SSW 19.6 mph 29.9 mph N/A   Overcast
4:35 PM 66.2 °F 53.6 °F 64% 29.45 in 10.0 mi SSW 21.9 mph 27.6 mph N/A   Overcast
4:55 PM 66.2 °F 53.6 °F 64% 29.44 in 10.0 mi SSW 24.2 mph 28.8 mph N/A   Overcast
5:15 PM 66.2 °F 55.4 °F 68% 29.44 in 10.0 mi SSW 19.6 mph 29.9 mph N/A   Overcast
5:35 PM 66.2 °F 55.4 °F 68% 29.44 in 10.0 mi SSW 20.7 mph 32.2 mph N/A   Overcast
5:55 PM 66.2 °F 55.4 °F 68% 29.44 in 10.0 mi SSW 19.6 mph 31.1 mph N/A   Overcast
6:15 PM 66.2 °F 55.4 °F 68% 29.43 in 10.0 mi SSW 24.2 mph 28.8 mph N/A   Overcast
6:35 PM 66.2 °F 55.4 °F 68% 29.43 in 10.0 mi SSW 16.1 mph 21.9 mph N/A   Overcast
6:55 PM 66.2 °F 53.6 °F 64% 29.43 in 10.0 mi SSW 25.3 mph 35.7 mph N/A   Mostly Cloudy
7:15 PM 66.2 °F 51.8 °F 60% 29.43 in 10.0 mi SW 23.0 mph 36.8 mph N/A   Scattered Clouds
7:35 PM 66.2 °F 51.8 °F 60% 29.44 in 10.0 mi SW 20.7 mph 28.8 mph N/A   Scattered Clouds
7:55 PM 62.6 °F 50.0 °F 63% 29.46 in 10.0 mi West 23.0 mph 39.1 mph N/A   Overcast
8:15 PM 59.0 °F 48.2 °F 67% 29.49 in 10.0 mi WSW 21.9 mph 36.8 mph N/A   Mostly Cloudy
8:35 PM 59.0 °F 44.6 °F 59% 29.51 in 10.0 mi WSW 25.3 mph 36.8 mph N/A   Mostly Cloudy
8:55 PM 57.2 °F 44.6 °F 63% 29.53 in 10.0 mi WSW 24.2 mph 35.7 mph N/A   Overcast
9:15 PM 57.2 °F 44.6 °F 63% 29.55 in 10.0 mi WSW 19.6 mph 35.7 mph N/A   Overcast
9:35 PM 55.4 °F 46.4 °F 72% 29.57 in 10.0 mi WSW 21.9 mph 29.9 mph N/A   Overcast
9:55 PM 53.6 °F 44.6 °F 72% 29.59 in 10.0 mi WSW 25.3 mph 39.1 mph N/A   Overcast
10:15 PM 51.8 °F 44.6 °F 76% 29.61 in 10.0 mi WSW 24.2 mph 34.5 mph N/A   Overcast
10:35 PM 51.8 °F 42.8 °F 71% 29.63 in 10.0 mi WSW 26.5 mph 36.8 mph N/A   Overcast
10:55 PM 50.0 °F 41.0 °F 71% 29.63 in 10.0 mi WSW 20.7 mph 32.2 mph N/A   Overcast
11:15 PM 50.0 °F 41.0 °F 71% 29.65 in 10.0 mi WSW 18.4 mph 33.4 mph N/A   Overcast
11:35 PM 48.2 °F 41.0 °F 76% 29.65 in 10.0 mi WSW 17.3 mph 28.8 mph N/A   Overcast
11:55 PM 48.2 °F 41.0 °F 76% 29.66 in 10.0 mi WSW 19.6 mph 28.8 mph N/A   Overcast